This is the latest recevied weather packets stored in our database for station/object IW5CTE-13. If no packets are shown the sender has not sent any weather packets the latest 10 day(s).
| Time | Temp. | Humidity | Pressure | Rain* | Wind** | Luminosity | Snow |
|---|---|---|---|---|---|---|---|
| 1777659451 | 19.44° C | 26% | 1023.8 hPa | - | - | - | - |
| 1777658851 | 19.44° C | 25% | 1023.6 hPa | - | - | - | - |
| 1777658251 | 18.89° C | 24% | 1023.3 hPa | - | - | - | - |
| 1777657652 | 19.44° C | 24% | 1023.1 hPa | - | - | - | - |
| 1777657051 | 19.44° C | 24% | 1023.3 hPa | - | - | - | - |
| 1777656451 | 20° C | 24% | 1023.3 hPa | - | - | - | - |
| 1777655851 | 20° C | 23% | 1023.1 hPa | - | - | - | - |
| 1777655251 | 20° C | 24% | 1023 hPa | - | - | - | - |
| 1777654651 | 20.56° C | 24% | 1022.9 hPa | - | - | - | - |
| 1777654052 | 20.56° C | 24% | 1022.9 hPa | - | - | - | - |
| 1777653451 | 21.11° C | 24% | 1022.9 hPa | - | - | - | - |
| 1777652852 | 21.11° C | 24% | 1022.9 hPa | - | - | - | - |
| 1777652252 | 21.11° C | 24% | 1022.7 hPa | - | - | - | - |
| 1777651652 | 21.11° C | 25% | 1022.7 hPa | - | - | - | - |
| 1777651052 | 21.11° C | 24% | 1022.9 hPa | - | - | - | - |
| 1777650452 | 21.67° C | 24% | 1022.9 hPa | - | - | - | - |
| 1777649851 | 21.11° C | 24% | 1022.9 hPa | - | - | - | - |
| 1777649251 | 21.11° C | 24% | 1022.9 hPa | - | - | - | - |
| 1777648651 | 21.67° C | 23% | 1022.9 hPa | - | - | - | - |
| 1777648051 | 21.67° C | 23% | 1022.8 hPa | - | - | - | - |
| 1777647451 | 21.67° C | 23% | 1022.9 hPa | - | - | - | - |
| 1777646852 | 21.67° C | 22% | 1022.8 hPa | - | - | - | - |
| 1777646251 | 21.67° C | 22% | 1023.1 hPa | - | - | - | - |
| 1777645652 | 21.67° C | 22% | 1023.1 hPa | - | - | - | - |
| 1777645051 | 21.67° C | 21% | 1023.1 hPa | - | - | - | - |
* Rain since midnight (hover to see other rain measurements)
** Current wind speed in m/s (hover to see current wind gust speed)